Taurus 1
1 44530U 19059C   25042.80686742  .00010487  00000-0  20602-2 0  9996
2 44530  98.5908 176.9604 0009210  38.2290 321.9561 14.62821293286704
Duchifat 3
1 44854U 19089C   25042.33489740  .00044231  00000-0  13175-2 0  9996
2 44854  36.9495  20.0650 0010410 279.7020  80.2556 15.33687780284771
TO-108
1 44881U 19093C   25042.80904514  .00002039  00000-0  24430-3 0  9991
2 44881  97.8043 120.9029 0012629 256.8163 103.1643 14.85119551278591
FloripaSat 1
1 44885U 19093G   25042.80920089  .00008250  00000-0  73795-3 0  9999
2 44885  97.8230 130.3445 0010300 237.5655 122.4570 14.96085330279128
RS-44
1 44909U 19096E   25042.42319057  .00000024  00000-0  55052-4 0  9992
2 44909  82.5233 305.8043 0216769 211.6402 147.1519 12.79738169239578
UPMSat 2
1 46276U 20061E   25042.43679043  .00048937  00000-0  79803-3 0  9994
2 46276  97.2635 114.2197 0000321  30.0562 330.0709 15.52461619247045
SALSAT
1 46495U 20068K   25042.49665826  .00011124  00000-0  52201-3 0  9995
2 46495  97.8476  15.4037 0011288 201.3400 158.7364 15.19779868240574
CubeSX-Sirius-HSE
1 47951U 21022V   25042.86727616  .00075070  00000-0  12427-2 0  9996
2 47951  97.4350 310.0538 0009170  25.0850 335.0846 15.51885429215378
CubeSX-HSE
1 47952U 21022W   25042.84836078  .00075687  00000-0  12317-2 0  9990
2 47952  97.4354 310.2105 0008787  20.2569 339.9030 15.52365179215387
KSU-Cubesat
1 47954U 21022Y   25042.70347728  .00214110  00000-0  16701-2 0  9993
2 47954  97.4320 314.0287 0006309  43.7245 316.4516 15.71017756215334
GRBAlpha
1 47959U 21022AD  25042.80980100  .00075070  00000-0  12276-2 0  9999
2 47959  97.4340 310.3319 0009166  24.0960 336.0719 15.52227944214205
Orbicraft-Zorkiy
1 47960U 21022AE  25042.82901012  .00144768  00000-0  16017-2 0  9996
2 47960  97.4335 313.3741 0007092  30.8296 329.3377 15.62509336215065
TUBIN
1 48900U 21059X   25042.77837560  .00042606  00000-0  82645-3 0  9990
2 48900  97.6650 203.6571 0005071 313.5513  46.5315 15.47543256201744
LEDSAT
1 49069U 21073D   25042.72819500  .00045704  00000-0  99427-3 0  9990
2 49069  97.4050 120.7841 0013130 147.9558 212.2491 15.44085842193156
CUTE
1 49263U 21088D   25042.16410987  .00018085  00000-0  44397-3 0  9994
2 49263  97.4658 115.4066 0008494 315.9675  44.0894 15.40706487186151
TeikyoSat 4
1 49396U 21102B   25042.58038850  .00003785  00000-0  25813-3 0  9992
2 49396  97.4287  85.2192 0012952 170.9029 189.2436 15.06747169178773
Z-Sat
1 49399U 21102E   25042.81649500  .00006699  00000-0  38460-3 0  9990
2 49399  97.3986  87.8755 0019526 148.4623 211.7783 15.12689914179168
KOSEN 1
1 49402U 21102H   25042.69878781  .00009785  00000-0  48731-3 0  9997
2 49402  97.3900  90.3575 0017964 128.1296 232.1560 15.17637280179392
HO-113
1 50466U 21131B   25042.83298546  .00001161  00000-0  37855-3 0  9997
2 50466  98.5137 132.7892 0005105 124.3208 235.8464 14.40527235164498
IRIS-A
1 51044U 22002BN  25042.45209132  .00081344  00000-0  11100-2 0  9994
2 51044  97.3467 117.3391 0003878 249.3294 110.7545 15.57212964171291
Foresail-1
1 52766U 22057AL  25042.35305539  .00074816  00000-0  10368-2 0  9994
2 52766  97.5972 183.6390 0006172 341.1815  18.9210 15.56807888151314
SNUGLITE 2
1 52899U 22065F   25042.85038536  .00002369  00000-0  47529-3 0  9999
2 52899  98.1472 186.1463 0008469 119.7924 240.4121 14.62601199139270
IO-117
1 53106U 22080B   25042.50223640 -.00000003  00000-0  00000+0 0  9995
2 53106  70.1392 109.3763 0008154  50.6584 309.4797  6.42557620 60646
FO-118
1 54684U 22167C   25042.81367550  .00364719  00000-0  17179-2 0  9990
2 54684  97.6091 206.0177 0008042 316.7663  43.2973 15.82118179121353
SO-120
1 56992U 23084BU  25042.76759540  .17342116  26494-5  33638-3 0  9995
2 56992  97.5047 178.6720 0014759 276.3055  83.6566 16.46134597 93271
UmKA 1 (RS40S)
1 57172U 23091G   25042.85798847  .00007919  00000-0  45029-3 0  9995
2 57172  97.5774  98.9198 0015641  25.8662 334.3348 15.13046236 89661
CubeBel-2 (EU11S)
1 57175U 23091K   25042.88513981  .00012640  00000-0  66359-3 0  9991
2 57175  97.5777  99.4862 0013820  35.7361 324.4793 15.15779354 89709
VERONIKA
1 58261U 23174F   25042.77860559  .00059743  00000-0  12989-2 0  9998
2 58261  97.4295 124.3934 0007356 112.4398 247.7629 15.44100577 70362
KAFASAT
1 58317U 23174BP  25042.82944712  .00159210  00000-0  17473-2 0  9993
2 58317  97.4181 127.6285 0002712  58.3052 301.8471 15.62693661 70604
ENSO
1 58470U 23185J   25042.85151201  .00041661  00000-0  99242-3 0  9996
2 58470  97.3916 115.3858 0009141 143.7372 216.4496 15.41437985 66814
EIRSAT-1
1 58472U 23185L   25042.87837188  .00052101  00000-0  10891-2 0  9998
2 58472  97.3910 116.0719 0008105 144.8158 215.3627 15.45290400 66869
SONATE-2
1 59112U 24043Q   25042.35196465  .00024056  00000-0  83560-3 0  9995
2 59112  97.4968 171.7873 0012074 171.9406 188.2030 15.29684955 52226
MO-122
1 60209U 24125G   25042.51960666  .00024896  00000-0  85344-3 0  9999
2 60209  97.2943 255.8170 0020599 197.1381 162.9166 15.29967993 33867
GRBBeta
1 60237U 24128C   25042.62290385  .00005952  00000-0  47418-3 0  9991
2 60237  61.9933 130.3264 0040039  29.9343 330.4024 15.00809628 32488
Curium One
1 60242U 24128H   25042.61206789  .00009371  00000-0  71273-3 0  9996
2 60242  61.9836 130.0323 0040367  24.2199 336.0777 15.02060541 32493
ROBUSTA-3A
1 60243U 24128J   25042.58272262  .00009850  00000-0  75665-3 0  9993
2 60243  61.9903 130.6072 0038449  22.1107 338.1631 15.01696754 32481
CatSat
1 60246U 24125J   25042.09045133  .00015060  00000-0  55494-3 0  9992
2 60246  97.2729 255.7494 0046228 153.8137 206.5455 15.26882130 31885
HYPERVIEW-1G (RS66S)
1 61772U 24199AP  25042.87073280  .00024485  00000-0  87953-3 0  9994
2 61772  97.3733 272.3807 0014078 252.8930 107.0768 15.28557178 58938
AO-123
1 61781U 24199AY  25042.77234105  .00012236  00000-0  48191-3 0  9990
2 61781  97.3742 272.0657 0015129 254.4381 105.5188 15.25648264 58904
POEM 4 (BGS ARPIT)
1 62461U 24253C   25042.72712333  .00147298  00000-0  71660-3 0  9990
2 62461  55.2197  50.5546 0012547  44.5933 315.6124 15.81428786  6774
